Regional Weather Roundup
Issued by NWS

Home | Current Version | Previous Version | Graphics & Text | Print | Product List | Glossary Off
Versions: 1 2 3 4 5 6 7 8 9 10 11 12 13 14 15 16 17 18 19 20 21 22 23 24 25 26 27 28 29 30 31 32 33 34 35 36 37 38 39 40 41 42 43 44 45 46 47 48 49 50

000
ASUS43 KMKX 261000
RWRWI

WISCONSIN REGIONAL WEATHER ROUNDUP
NATIONAL WEATHER SERVICE MILWAUKEE/SULLIVAN WI
500 AM CDT WED APR 26 2017

NOTE: "FAIR" INDICATES FEW OR NO CLOUDS BELOW 12,000 FEET WITH NO
SIGNIFICANT WEATHER AND/OR OBSTRUCTIONS TO VISIBILITY.

WIZ001-002-006>008-014>016-023>028-261100-
NORTHWEST WISCONSIN

CITY           SKY/WX    TMP DP  RH WIND       PRES   REMARKS
SUPERIOR ARPT  MIX PCPN  32  31  96 NE21G28   29.67S WCI  20
ASHLAND        FRZ RAIN  32  30  92 NE16G28   29.65F FOG     WCI  21
HAYWARD        FRZ RAIN  33  30  88 NE14      29.55F FOG     WCI  23
SIREN          MIX PCPN  33  32  96 NE13G23   29.56S WCI  24
CUMBERLAND     LGT RAIN  34  32  93 NE14G20   29.50F WCI  24
RICE LAKE      DRIZZLE   37  35  94 N16G22    29.51S WCI  27
CHETEK         LGT RAIN  39  38  95 NE12G18   29.48F WCI  32
LADYSMITH      RAIN      38  37  94 NE14G20   29.51F WCI  30
EAU CLAIRE     NOT AVBL
MENOMONIE      DRIZZLE   42  42 100 N9        29.46S
NEW RICHMOND   LGT RAIN  39  38  97 NE13      29.48S WCI  31
OSCEOLA        LGT RAIN  38  38 100 N12G18    29.52F WCI  30
$$

WIZ003>005-009-010-017-018-261100-
NORTH CENTRAL WISCONSIN

CITY           SKY/WX    TMP DP  RH WIND       PRES   REMARKS
MANITOWISH WTR RAIN      34  34 100 NE12G17   29.53F WCI  25
ARBOR VITAE    LGT RAIN  39  38  94 NE10G18   29.52F WCI  32
WOODRUFF       LGT RAIN  39  38  94 NE10G18   29.52F WCI  32
RHINELANDER    LGT RAIN  44  44 100 NE10      29.51F
EAGLE RIVER    LGT RAIN  39  39 100 N5        29.53F
LAND O LAKES   RAIN      38  38  99 N7        29.57S WCI  32
PHILLIPS       LGT RAIN  36  36 100 NE9       29.50F WCI  29
TOMAHAWK       DRIZZLE   43  42  97 NE7       29.50F
MEDFORD        LGT RAIN  52  51  96 NE6       29.44F
MERRILL        DRIZZLE   54  54 100 E5        29.48S
$$

WIZ029-030-035-036-043>047-261100-
CENTRAL WISCONSIN

CITY           SKY/WX    TMP DP  RH WIND       PRES   REMARKS
WAUSAU         CLOUDY    53  53 100 E7        29.44F
MOSINEE        LGT RAIN  54  54 100 E9        29.46F
MARSHFIELD     LGT RAIN  56  53  90 E8        29.41F FOG
STEVENS POINT  DRIZZLE   55  55 100 E7        29.45F
WAUPACA        CLOUDY    58  56  92 NE3       29.45F
WAUTOMA        CLOUDY    58  55  90 E5        29.43
WISC RAPIDS    CLOUDY    57  57 100 E7        29.43F
CAMP DOUGLAS   CLOUDY    54  54 100 CALM      29.39F
$$

WIZ011>013-019>022-031-037>040-048>050-261100-
NORTHEAST WISCONSIN

CITY           SKY/WX    TMP DP  RH WIND       PRES   REMARKS
ANTIGO         CLOUDY    50  50 100 E15       29.48F
SHAWANO        DRIZZLE   53  50  90 NE9       29.50F
OCONTO         CLOUDY    47  46  97 NE3       29.51F
STURGEON BAY   CLOUDY    55  51  86 SE8       29.52S
GREEN BAY      CLOUDY    53  53 100 NE9       29.48F
MANITOWOC      NOT AVBL
APPLETON       CLOUDY    55  52  88 E5        29.45F
CLINTONVILLE   CLOUDY    52  52 100 NE6       29.46F
OSHKOSH        CLOUDY    59  52  77 SE8       29.43F
$$

WIZ032>034-041-042-053>061-261100-
SOUTHWEST WISCONSIN

CITY           SKY/WX    TMP DP  RH WIND       PRES   REMARKS
LA CROSSE      CLOUDY    57  54  89 E5        29.38F
SPARTA         MOCLDY    53  53 100 CALM      29.40F
VIROQUA        CLOUDY    54  54  99 E3        29.39F
BOSCOBEL       CLOUDY    57  55  93 CALM      29.36F
PRAIRIE DU CHI CLOUDY    56  56  97 CALM      29.36F FOG
PLATTEVILLE    CLOUDY    59  56  89 SE6       29.40S
$$

WIZ056-057-062-063-064-067-068-261100-
SOUTH CENTRAL WISCONSIN

CITY           SKY/WX    TMP DP  RH WIND       PRES   REMARKS
REEDSBURG      CLOUDY    59  54  82 E3        29.39F
BARABOO/DELLS  CLOUDY    58  51  77 CALM      29.40F
LONE ROCK      NOT AVBL
MINERAL POINT  CLOUDY    61  55  82 S7        29.40S
MADISON        CLOUDY    62  55  77 S7        29.40F
MIDDLETON      CLOUDY    61  55  80 S3        29.41F
WATERTOWN      CLOUDY    61  55  79 SE6       29.43F
MONROE         MOCLDY    61  52  72 S8        29.41S
JANESVILLE     PTCLDY    64  52  63 SE10      29.42F
$$

WIZ051-052-058>065-066-070>072-261100-
SOUTHEAST WISCONSIN

CITY           SKY/WX    TMP DP  RH WIND       PRES   REMARKS
MILWAUKEE      CLOUDY    59  52  77 SE9       29.47F
WAUKESHA       CLOUDY    59  50  72 SE8       29.47F
MILWAUKEE/TIMM CLOUDY    57  48  72 CALM      29.48F
RACINE         CLOUDY    55  49  80 S13       29.49F
KENOSHA        CLOUDY    58  51  78 SE9       29.47F
FOND DU LAC    CLOUDY    61  51  70 SE12      29.43F
SHEBOYGAN      CLOUDY    53  49  86 S8        29.48F
WEST BEND      MOCLDY    55  52  88 CALM      29.47F
JUNEAU         CLOUDY    60  53  76 SE8       29.45F
$$

LSZ147-162-261100-
LAKE SUPERIOR

STATION/POSITION TIME  TEMP    WIND        PRES    WAVE
                       AIR SEA DIR/SP/G            HT/PER
                 (UTC) (F)     (DEG/KT/KT) (MB)    (FT/S)
DEVILS ISLAND    0900   31      50/  5/  6 1006.5F
SAXON HARBOR     0930   34      40/ 25/ 31 1003.4S
$$

LMZ867-665-643>646-261100-
LAKE MICHIGAN

STATION/POSITION TIME  TEMP    WIND        PRES    WAVE
                       AIR SEA DIR/SP/G            HT/PER
                 (UTC) (F)     (DEG/KT/KT) (MB)    (FT/S)
CHAMBERS ISLAND  0940   41      10/  6/ 10 1000.3S
N MID LAKE BUOY  0850   42 37   90/ 12/ 14 1001.8F   2/ 4
NORTHPORT PIER   0940   43     110/  6/  9 1000.7F
KEWAUNEE LAKESHO 0930   54     170/ 12/ 14  999.2S
SHEBOYGAN LAKESH 0900   49     170/ 11/ 11  999.0F
PORT WASHINGTON  0940   49     130/  3/  4  999.7F
MILWAUKEE LAKESH 0930   50     140/  2/  4   N/A
S MID LAKE BUOY  0850   48 41  120/ 12/ 12 1000.2R   1/ 3
KENOSHA   LAKESH 0900   52     170/ 12/ 14  999.0
$$

TC  - TEMPERATURE IN CELSIUS
VSB - VISIBILITY IN STATUTE MILES
WCI - WIND CHILL INDEX
HX  - HEAT INDEX





USA.gov is the U.S. government's official web portal to all federal, state and local government web resources and services.